Regional Weather Roundup
Issued by NWS

Home | Current Version | Previous Version | Graphics & Text | Print | Product List | Glossary On
Versions: 1 2 3 4 5 6 7 8 9 10 11 12 13 14 15 16 17 18 19 20 21 22 23 24 25 26 27 28 29 30 31 32 33 34 35 36 37 38 39 40 41 42 43 44 45 46 47 48 49 50
000
ASUS43 KDTX 302201
RWRMI
MICHIGAN HOURLY REGIONAL WEATHER ROUNDUP
NATIONAL WEATHER SERVICE DETROIT/PONTIAC MI
600 PM EDT THU MAR 30 2017

NOTE: "FAIR" INDICATES FEW OR NO CLOUDS BELOW 12,000 FEET WITH NO
SIGNIFICANT WEATHER AND/OR OBSTRUCTION TO VISIBILITY.

MIZ047>049-052>055-059>063-066>070-074>076-081>083-302300-
SOUTHEAST LOWER MICHIGAN

CITY           SKY/WX    TMP DP  RH WIND       PRES   REMARKS
ADRIAN         CLOUDY    39  38  96 E17G25    29.72S WCI  30
ALMA           CLOUDY    37  36  96 E22G31    29.79F WCI  25
ANN ARBOR      CLOUDY    39  38  96 E16G25    29.73R WCI  30
BAD AXE        FLURRIES  33  32  94 NE16G23   29.94R WCI  23
CARO           LGT SNOW  35  33  95 E15G23    29.87F WCI  25
DETROIT CITY   LGT RAIN  37  37 100 NE20G26   29.77F FOG     WCI  27
DETROIT        LGT RAIN  39  38  96 E16G28    29.76F FOG     WCI  30
FLINT          LGT RAIN  37  35  92 E23       29.76F WCI  26
GROSSE ILE     LGT RAIN  38  37  94 E17G23    29.75F WCI  28
HILLSDALE      CLOUDY    37  36  93 E16G25    29.67F WCI  28
HOWELL         CLOUDY    38  36  92 E16G31    29.70F WCI  29

CITY           SKY/WX    TMP DP  RH WIND       PRES   REMARKS
JACKSON        CLOUDY    41  32  70 E13G24    29.70R
LAMBERTVILLE   CLOUDY    40  38  93 E14G22    29.72F WCI  33
LANSING        CLOUDY    40  36  86 E16G24    29.72F WCI  31
LAPEER         RAIN      36  35  96 E6        29.89R WCI  31
MASON          CLOUDY    39  38  94 E13G18    29.70F WCI  32
MONROE         CLOUDY    39  39  99 E14G22    29.74F WCI  31
MT. CLEMENS    RAIN      38  38 100 E16       29.85R FOG     WCI  30
PONTIAC        LGT RAIN  37  35  92 E26       29.72F FOG     WCI  25
PORT HOPE        N/A     35  32  88 E13       29.94F WCI  26
PORT HURON     RAIN      37  34  87 E12       29.89R WCI  30
TRI CITIES     LGT RAIN  36  35  96 E21G30    29.81F WCI  25
MIDLAND        CLOUDY    35  33  93 NE16G25   29.84F WCI  25
TROY           MIX PCPN  38  36  91 NE18G28   29.80F VSB 1   WCI  29
SAGINAW HB     LGT SNOW  36  32  87 E20G26    29.82F WCI  25
$$
MIZ043>046-050>051-056>058-064>065-071>073-077>080-302300-
SOUTHWEST LOWER MICHIGAN

CITY           SKY/WX    TMP DP  RH WIND       PRES   REMARKS
BATTLE CREEK   TSTM      41  39  93 E13       29.72R FOG
BENTON HARBOR  CLOUDY    45  41  86 E17G24    29.60F
BIG RAPIDS     LGT SNOW  35  33  90 E18G26    29.78R WCI  25
COLDWATER      LGT RAIN  42  40  93 E13       29.67S
FREMONT        RAIN      37  35  93 E12G20    29.78R WCI  29
HOLLAND        HVY RAIN  39  38  96 E10       29.74F FOG     WCI  32
GRAND RAPIDS   TSTM      38  38 100 CALM      29.81R FOG
KALAMAZOO      RAIN      41  38  89 NE10G18   29.68S FOG
LUDINGTON      RAIN      39  37  92 E16G22    29.79R WCI  30
MARSHALL       RAIN      41  40  96 SW6       29.75R
MOUNT PLEASANT CLOUDY    34  32  94 E18G31    29.78F WCI  23
MUSKEGON       RAIN      39  37  92 E13G21    29.78R FOG     WCI  31
SOUTH HAVEN    LGT RAIN  42  41  96 NE20G31   29.56F
$$
MIZ016>042-302300-
NORTHERN LOWER MICHIGAN

CITY           SKY/WX    TMP DP  RH WIND       PRES   REMARKS
ALPENA         LGT SNOW  36  28  73 E18G26    30.00F WCI  26
BEAVER ISLAND  LGT SNOW  33  32  97 E18G26    29.95F WCI  22
BELLAIRE       FLURRIES  36  32  85 NE10G17   29.89F WCI  28
CADILLAC       CLOUDY    34  32  92 E22G29    29.79F WCI  22
CHARLEVOIX     CLOUDY    36  32  85 E15       29.94F WCI  27
FRANKFORT      CLOUDY    39  32  75 E6G17     29.82S WCI  35
GAYLORD        SNOW      33  29  85 E9G16     29.90F VSB 1/2 WCI  25
HARBOR SPRINGS LGT SNOW  33  32  96 NE17G23   29.93F WCI  22
HOUGHTON LAKE  CLOUDY    34  31  88 E20G28    29.85F WCI  23
MANISTEE       LGT RAIN  40  35  83 E14G20    29.81R WCI  32
OSCODA         LGT SNOW  34  32  94 NE12G20   29.99R WCI  25
PELLSTON       LGT SNOW  33  29  85 E14G23    29.97F FOG     WCI  23
ROGERS CITY    CLOUDY    36  28  71 E13G22    30.01F WCI  28
TRAVERSE CITY  CLOUDY    39  33  79 E10G22    29.85F WCI  32
$$
MIZ007>008-015-302300-
EASTERN UPPER MICHIGAN

CITY           SKY/WX    TMP DP  RH WIND       PRES   REMARKS
KINROSS        CLOUDY    39  23  52 E9        30.01F WCI  33
NEWBERRY       CLOUDY    39  21  48 E8        29.97F WCI  34
S. S. MARIE    CLOUDY    40  22  48 SE9       30.02F WCI  34
MUNISING         N/A     43  20  39 SE15G24   29.96F
$$
MIZ004>006-011>014-085-302300-
CENTRAL UPPER MICHIGAN

CITY           SKY/WX    TMP DP  RH WIND       PRES   REMARKS
MANISTIQUE     CLOUDY    36  28  71 E13G28    29.97F WCI  28
ESCANABA       LGT RAIN  34  32  92 NE10G17   29.94F WCI  26
MENOMINEE      MIX PCPN  34  32  92 NE20G26   29.90F WCI  23
SAWYER-GWINN   CLOUDY    39  28  65 E13       29.94F WCI  32
$$
MIZ001>003-009>011-084-302300-
WESTERN UPPER MICHIGAN

CITY           SKY/WX    TMP DP  RH WIND       PRES   REMARKS
IRON MOUNTAIN  CLOUDY    36  31  82 E7        29.90F WCI  30
HOUGHTON       MOSUNNY   37  28  70 E14       29.96S WCI  28
COPPER HARBOR    N/A     40  28  62 S12G17    29.99F WCI  33
IRONWOOD       CLOUDY    47  30  51 E10       29.88F
$$

ABBREVIATIONS USED IN REMARKS
   TC - TEMPERATURE IN CELSIUS
  WCI - WIND CHILL INDEX
   HX - HEAT INDEX
  VSB - VISIBILITY




USA.gov is the U.S. government's official web portal to all federal, state and local government web resources and services.